• In Uzbekistan
  • List of Countries
  • For 7 days
  • Water Temperature
  • Satellite Maps
  • Weather Map
  • Weather Widgets
  • user-avatar
    Login

    Hourly Weather Kapuvar

    Today, 25 September, Monday

    Time Temperature Precipitation Wind Pressure Humidity
    00:00 +12°C° 0 mm 1 mps 755 mmHg 89%
    01:00 +11°C° 0 mm 0 mps 755 mmHg 91%
    02:00 +11°C° 0 mm 0 mps 755 mmHg 91%
    03:00 +11°C° 0 mm 0 mps 755 mmHg 92%
    04:00 +10°C° 0 mm 0 mps 755 mmHg 93%
    05:00 +11°C° 0 mm 0 mps 755 mmHg 91%
    06:00 +12°C° 0 mm 1 mps 755 mmHg 90%
    07:00 +13°C° 0 mm 1 mps 755 mmHg 87%
    08:00 +14°C° 0 mm 1 mps 755 mmHg 82%
    09:00 +15°C° 0 mm 1 mps 755 mmHg 77%
    10:00 +16°C° 0 mm 2 mps 755 mmHg 72%
    11:00 +17°C° 0 mm 2 mps 755 mmHg 68%
    12:00 +18°C° 0 mm 2 mps 755 mmHg 64%
    13:00 +19°C° 0 mm 2 mps 755 mmHg 60%
    14:00 +19°C° 0 mm 2 mps 755 mmHg 61%
    15:00 +19°C° 0 mm 2 mps 755 mmHg 61%
    16:00 +19°C° 0 mm 3 mps 755 mmHg 61%
    17:00 +17°C° 0 mm 2 mps 755 mmHg 66%
    18:00 +16°C° 0 mm 2 mps 755 mmHg 71%
    19:00 +15°C° 0 mm 2 mps 756 mmHg 76%
    20:00 +14°C° 0 mm 2 mps 756 mmHg 78%
    21:00 +14°C° 0 mm 2 mps 756 mmHg 79%
    22:00 +14°C° 0 mm 1 mps 756 mmHg 80%
    23:00 +14°C° 0 mm 1 mps 756 mmHg 81%

    Tomorrow, 26 September, Tuesday

    Time Temperature Precipitation Wind Pressure Humidity
    00:00 +13°C° 0 mm 1 mps 756 mmHg 82%
    01:00 +13°C° 0 mm 1 mps 756 mmHg 82%
    02:00 +13°C° 0.3 mm 1 mps 756 mmHg 83%
    03:00 +13°C° 0.3 mm 1 mps 756 mmHg 85%
    04:00 +13°C° 0.3 mm 1 mps 756 mmHg 86%
    05:00 +13°C° 0.1 mm 1 mps 756 mmHg 86%
    06:00 +14°C° 0.1 mm 1 mps 757 mmHg 85%
    07:00 +14°C° 0.1 mm 2 mps 757 mmHg 85%
    08:00 +16°C° 0 mm 2 mps 757 mmHg 78%
    09:00 +17°C° 0 mm 2 mps 757 mmHg 70%
    10:00 +19°C° 0 mm 2 mps 757 mmHg 63%
    11:00 +20°C° 0 mm 2 mps 757 mmHg 59%
    12:00 +21°C° 0 mm 2 mps 757 mmHg 55%
    13:00 +23°C° 0 mm 2 mps 757 mmHg 51%
    14:00 +23°C° 0 mm 2 mps 756 mmHg 52%
    15:00 +23°C° 0 mm 2 mps 756 mmHg 53%
    16:00 +23°C° 0 mm 2 mps 756 mmHg 53%
    17:00 +21°C° 0 mm 2 mps 756 mmHg 58%
    18:00 +19°C° 0 mm 2 mps 757 mmHg 63%
    19:00 +18°C° 0 mm 1 mps 757 mmHg 68%
    20:00 +18°C° 0 mm 1 mps 757 mmHg 70%
    21:00 +16°C° 0 mm 1 mps 757 mmHg 72%
    22:00 +16°C° 0 mm 1 mps 757 mmHg 74%
    23:00 +16°C° 0 mm 1 mps 757 mmHg 75%

    Day after tomorrow, 27 September, Wednesday

    Time Temperature Precipitation Wind Pressure Humidity
    00:00 +15°C° 0 mm 1 mps 757 mmHg 77%
    01:00 +15°C° 0 mm 1 mps 757 mmHg 79%
    02:00 +15°C° 0 mm 1 mps 757 mmHg 79%
    03:00 +14°C° 0 mm 1 mps 757 mmHg 80%
    04:00 +14°C° 0 mm 1 mps 757 mmHg 81%
    05:00 +14°C° 0 mm 1 mps 758 mmHg 80%
    06:00 +15°C° 0 mm 2 mps 758 mmHg 80%
    07:00 +15°C° 0 mm 2 mps 758 mmHg 79%
    08:00 +17°C° 0 mm 2 mps 758 mmHg 72%
    09:00 +19°C° 0 mm 2 mps 758 mmHg 66%
    10:00 +20°C° 0 mm 2 mps 759 mmHg 59%
    11:00 +21°C° 0 mm 2 mps 758 mmHg 55%
    12:00 +22°C° 0 mm 3 mps 758 mmHg 52%
    13:00 +24°C° 0 mm 3 mps 758 mmHg 49%
    14:00 +24°C° 0.1 mm 3 mps 758 mmHg 50%
    15:00 +24°C° 0.1 mm 3 mps 758 mmHg 51%
    16:00 +24°C° 0.1 mm 3 mps 758 mmHg 53%
    17:00 +21°C° 0.1 mm 2 mps 758 mmHg 56%
    18:00 +19°C° 0.1 mm 2 mps 758 mmHg 60%
    19:00 +18°C° 0.1 mm 2 mps 758 mmHg 63%
    20:00 +17°C° 0 mm 2 mps 759 mmHg 63%
    21:00 +16°C° 0 mm 2 mps 759 mmHg 63%
    22:00 +16°C° 0 mm 2 mps 759 mmHg 64%
    23:00 +15°C° 0 mm 2 mps 759 mmHg 65%

    28 September, Thursday

    Time Temperature Precipitation Wind Pressure Humidity
    00:00 +15°C° 0 mm 2 mps 759 mmHg 66%
    01:00 +15°C° 0 mm 2 mps 759 mmHg 67%
    02:00 +14°C° 0 mm 2 mps 759 mmHg 68%
    03:00 +14°C° 0 mm 2 mps 759 mmHg 69%
    04:00 +13°C° 0 mm 2 mps 759 mmHg 70%
    05:00 +13°C° 0 mm 2 mps 759 mmHg 69%
    06:00 +14°C° 0 mm 2 mps 760 mmHg 69%
    07:00 +14°C° 0 mm 2 mps 760 mmHg 69%
    08:00 +16°C° 0 mm 2 mps 760 mmHg 62%
    09:00 +18°C° 0 mm 3 mps 760 mmHg 56%
    10:00 +20°C° 0 mm 3 mps 760 mmHg 49%
    11:00 +21°C° 0 mm 3 mps 760 mmHg 46%
    12:00 +21°C° 0 mm 3 mps 760 mmHg 44%
    13:00 +22°C° 0 mm 3 mps 759 mmHg 41%
    14:00 +22°C° 0 mm 3 mps 759 mmHg 42%
    15:00 +23°C° 0 mm 2 mps 759 mmHg 43%
    16:00 +23°C° 0 mm 2 mps 759 mmHg 45%
    17:00 +20°C° 0 mm 2 mps 759 mmHg 49%
    18:00 +18°C° 0 mm 2 mps 759 mmHg 54%
    19:00 +16°C° 0 mm 2 mps 759 mmHg 58%
    20:00 +16°C° 0 mm 2 mps 759 mmHg 60%
    21:00 +15°C° 0 mm 2 mps 759 mmHg 62%
    22:00 +14°C° 0 mm 2 mps 760 mmHg 63%
    23:00 +14°C° 0 mm 2 mps 759 mmHg 65%

    29 September, Friday

    Time Temperature Precipitation Wind Pressure Humidity
    00:00 +14°C° 0 mm 1 mps 759 mmHg 66%
    01:00 +13°C° 0 mm 1 mps 759 mmHg 67%
    02:00 +13°C° 0 mm 1 mps 759 mmHg 68%
    03:00 +12°C° 0 mm 1 mps 759 mmHg 69%
    04:00 +12°C° 0 mm 1 mps 759 mmHg 69%
    05:00 +12°C° 0 mm 1 mps 759 mmHg 69%
    06:00 +12°C° 0 mm 1 mps 759 mmHg 70%
    07:00 +13°C° 0 mm 1 mps 759 mmHg 70%
    08:00 +15°C° 0 mm 1 mps 759 mmHg 63%
    09:00 +17°C° 0 mm 2 mps 759 mmHg 56%
    10:00 +19°C° 0 mm 2 mps 759 mmHg 49%
    11:00 +19°C° 0 mm 2 mps 758 mmHg 47%
    12:00 +20°C° 0 mm 2 mps 758 mmHg 44%
    13:00 +21°C° 0 mm 2 mps 758 mmHg 41%
    14:00 +21°C° 0 mm 2 mps 757 mmHg 42%
    15:00 +22°C° 0 mm 1 mps 757 mmHg 42%
    16:00 +22°C° 0 mm 1 mps 757 mmHg 43%
    17:00 +20°C° 0 mm 1 mps 757 mmHg 47%
    18:00 +18°C° 0 mm 1 mps 757 mmHg 51%
    19:00 +15°C° 0 mm 1 mps 757 mmHg 56%
    20:00 +15°C° 0 mm 1 mps 757 mmHg 57%
    21:00 +14°C° 0 mm 1 mps 757 mmHg 59%
    22:00 +14°C° 0 mm 1 mps 757 mmHg 61%
    23:00 +13°C° 0 mm 1 mps 757 mmHg 62%

    30 September, Saturday

    Time Temperature Precipitation Wind Pressure Humidity
    00:00 +13°C° 0 mm 1 mps 757 mmHg 64%
    01:00 +13°C° 0 mm 1 mps 757 mmHg 66%
    02:00 +12°C° 0 mm 1 mps 757 mmHg 67%
    03:00 +12°C° 0 mm 1 mps 756 mmHg 69%
    04:00 +12°C° 0 mm 1 mps 756 mmHg 70%
    05:00 +12°C° 0 mm 1 mps 756 mmHg 70%
    06:00 +12°C° 0 mm 1 mps 756 mmHg 70%
    07:00 +12°C° 0 mm 1 mps 756 mmHg 70%
    08:00 +14°C° 0 mm 1 mps 756 mmHg 64%
    09:00 +16°C° 0 mm 1 mps 755 mmHg 57%
    10:00 +19°C° 0 mm 1 mps 755 mmHg 50%
    11:00 +20°C° 0 mm 1 mps 755 mmHg 47%
    12:00 +21°C° 0 mm 1 mps 754 mmHg 44%
    13:00 +22°C° 0 mm 1 mps 754 mmHg 41%
    14:00 +21°C° 0 mm 1 mps 754 mmHg 42%
    15:00 +21°C° 0 mm 1 mps 753 mmHg 43%
    16:00 +21°C° 0 mm 1 mps 753 mmHg 44%
    17:00 +19°C° 0 mm 1 mps 753 mmHg 48%
    18:00 +18°C° 0 mm 1 mps 753 mmHg 52%
    19:00 +15°C° 0 mm 1 mps 753 mmHg 56%
    20:00 +15°C° 0 mm 1 mps 753 mmHg 58%
    21:00 +14°C° 0 mm 1 mps 753 mmHg 60%
    22:00 +14°C° 0 mm 1 mps 753 mmHg 62%
    23:00 +13°C° 0 mm 1 mps 753 mmHg 63%
    Show more